星链-34210(STARLINK-34210)

导读

STARLINK-34210是美国于2025年9月19日发射的卫星,隶属于SpaceX公司的星链(Starlink)项目。星链项目旨在构建全球卫星互联网星座,为全球提供高速低延迟宽带网络服务,该卫星加入星座后将进一步扩充星链网络的覆盖范围,提升星链系统在通信服务方面的容量与稳定性。

Basic Information
目录编号:
65653
目录名称:
STARLINK-34210
国际标识:
2025-211B
轨道中心:
EARTH
卫星名称:
星链-34210
卫星全名:
星链-34210(STARLINK-34210)
卫星状态:
在轨 (已飞行350 天)
发射日期:
2025-09-19 UTC
国别 :
美国 (US)
星等 :
--
Orbit Information
数据来源 国际轨道数据 AOE轨道数据
星历时间 2026-09-04T09:27:08+0800
12小时前
查看轨道信息
2026-09-03T23:00:00+0800
22小时前
查看轨道信息
半长轴 6843.664km 6843.686km
偏心率 0.0000323 0.0001048
轨道倾角 97.284° 97.286°
近地点辐角 58.260° 108.660°
升交点赤经 287.521° 287.092°
平近点角 301.867° 8.908°
近地点 465.305km 464.831km
远地点 465.749km 466.267km
周期 93.906分钟 93.906分钟
每日圈数 15.334505 15.334432
Detailed Information
固有亮度:
5
最大亮度:
2.5
卫星平台:
Starlink V1.0
覆盖范围:
全球
运营商:
太空探索技术公司
运营商所在国:
美国
制造商(研发单位):
太空探索技术公司
制造商所在国:
美国
使用方式:
暂无
Satellite Introduction
Starlink 计划是 SpaceX 推出的全球卫星互联网项目,通过发射低轨道卫星,为全球尤其是偏远地区提供高速、低延迟的互联网服务。自 2019 年起,Starlink 已部署数千颗卫星,旨在缩小全球数字鸿沟,推动互联网普及。该项目还为军事、航空等行业提供通信支持,带来广泛经济效益。
2D Orbit Map
3D Orbit Map
Orbit Altitude Analysis Chart
Orbit Inclination Analysis Chart
Orbit Comprehensive Analysis Chart
View Comprehensive Chart
Conjunction Data List
Event ID Objects TCA Miss Dist (km) Collision Risk Probability Collision Risk Index (CRI) Action
CDM_260827-203505-816506-565321
2026-08-27T
20:35:44+0000
2.864 km
极远距离
1.366684E-6 低风险 0.38
CDM_260905-043805-229706-565321
2026-09-05T
04:38:06+0000
2.581 km
极远距离
1.323644E-6 低风险 0.37
CDM_260830-170405-228006-565321
2026-08-30T
17:04:25+0000
2.896 km
极远距离
1.287734E-6 低风险 0.37
CDM_260904-172006-277206-565321
2026-09-04T
17:20:18+0000
2.676 km
极远距离
1.270366E-6 低风险 0.37
CDM_260905-055005-171606-565321
2026-09-05T
05:50:04+0000
2.550 km
极远距离
1.215248E-6 低风险 0.37
CDM_260904-011306-565306-959721
2026-09-04T
01:13:26+0000
2.946 km
极远距离
1.177458E-6 低风险 0.36
CDM_260903-005806-167406-565321
2026-09-03T
00:58:19+0000
2.999 km
极远距离
1.001936E-6 低风险 0.35